Time,TemperatureF,DewpointF,PressureIn,WindDirection,WindDirectionDegrees,WindSpeedMPH,WindSpeedGustMPH,Humidity,HourlyPrecipIn,Conditions,Clouds,dailyrainin,SoftwareType,DateUTC
2013-08-18 00:00:00,64.5,57.1,30.16,East,91,0.0,1.0,77,0.00,,CLR,0.00,VWS V14.01,2013-08-18 05:00:00,
2013-08-18 00:03:00,64.6,56.9,30.16,ESE,103,1.0,2.0,76,0.00,,CLR,0.00,VWS V14.01,2013-08-18 05:03:00,
2013-08-18 00:08:00,64.7,57.0,30.16,ESE,106,1.0,1.0,76,0.00,,CLR,0.00,VWS V14.01,2013-08-18 05:08:00,
2013-08-18 00:10:00,64.8,57.1,30.16,East,97,0.0,3.0,76,0.00,,CLR,0.00,VWS V14.01,2013-08-18 05:10:00,
2013-08-18 00:13:00,64.6,56.9,30.16,ESE,105,0.0,1.0,76,0.00,,CLR,0.00,VWS V14.01,2013-08-18 05:13:00,
2013-08-18 00:19:00,64.3,57.0,30.16,ESE,104,0.0,0.0,77,0.00,,CLR,0.00,VWS V14.01,2013-08-18 05:19:00,
2013-08-18 00:20:00,64.3,57.0,30.16,ESE,104,0.0,1.0,77,0.00,,CLR,0.00,VWS V14.01,2013-08-18 05:20:00,
2013-08-18 00:24:00,64.1,56.8,30.16,East,99,2.0,2.0,77,0.00,,CLR,0.00,VWS V14.01,2013-08-18 05:24:00,
2013-08-18 00:29:00,64.0,56.7,30.16,ESE,111,0.0,0.0,77,0.00,,CLR,0.00,VWS V14.01,2013-08-18 05:29:00,
2013-08-18 00:30:00,64.0,56.7,30.16,ESE,111,0.0,3.0,77,0.00,,CLR,0.00,VWS V14.01,2013-08-18 05:30:00,
2013-08-18 00:34:00,63.9,56.6,30.16,East,82,1.0,2.0,77,0.00,,CLR,0.00,VWS V14.01,2013-08-18 05:34:00,
2013-08-18 00:39:00,63.8,56.5,30.16,East,82,0.0,0.0,77,0.00,,CLR,0.00,VWS V14.01,2013-08-18 05:39:00,
2013-08-18 00:40:00,63.8,56.5,30.16,East,82,0.0,2.0,77,0.00,,CLR,0.00,VWS V14.01,2013-08-18 05:40:00,
2013-08-18 00:44:00,63.8,56.8,30.16,East,91,0.0,2.0,78,0.00,,CLR,0.00,VWS V14.01,2013-08-18 05:44:00,
2013-08-18 00:49:00,63.9,56.9,30.16,East,93,2.0,3.0,78,0.00,,CLR,0.00,VWS V14.01,2013-08-18 05:49:00,
2013-08-18 00:50:00,63.8,56.8,30.16,ESE,115,3.0,4.0,78,0.00,,CLR,0.00,VWS V14.01,2013-08-18 05:50:00,
2013-08-18 00:54:00,64.0,57.0,30.17,East,98,0.0,3.0,78,0.00,,CLR,0.00,VWS V14.01,2013-08-18 05:54:00,
2013-08-18 00:59:00,63.9,56.9,30.16,ESE,110,2.0,4.0,78,0.00,,CLR,0.00,VWS V14.01,2013-08-18 05:59:00,
2013-08-18 01:00:00,63.9,56.9,30.16,SE,124,2.0,3.0,78,0.00,,CLR,0.00,VWS V14.01,2013-08-18 06:00:00,
2013-08-18 01:04:00,63.8,56.8,30.16,East,93,0.0,4.0,78,0.00,,CLR,0.00,VWS V14.01,2013-08-18 06:04:00,
2013-08-18 01:09:00,63.7,57.1,30.16,East,93,1.0,3.0,79,0.00,,CLR,0.00,VWS V14.01,2013-08-18 06:09:00,
2013-08-18 01:10:00,63.7,57.1,30.16,ESE,105,1.0,4.0,79,0.00,,CLR,0.00,VWS V14.01,2013-08-18 06:10:00,
2013-08-18 01:14:00,63.5,56.9,30.16,East,84,1.0,3.0,79,0.00,,CLR,0.00,VWS V14.01,2013-08-18 06:14:00,
2013-08-18 01:19:00,63.4,56.8,30.16,East,85,0.0,2.0,79,0.00,,CLR,0.00,VWS V14.01,2013-08-18 06:19:00,
2013-08-18 01:20:00,63.4,56.8,30.16,East,86,0.0,3.0,79,0.00,,CLR,0.00,VWS V14.01,2013-08-18 06:20:00,
2013-08-18 01:24:00,63.3,57.0,30.16,ESE,104,0.0,5.0,80,0.00,,CLR,0.00,VWS V14.01,2013-08-18 06:24:00,
2013-08-18 01:29:00,63.2,56.9,30.16,ESE,120,1.0,2.0,80,0.00,,CLR,0.00,VWS V14.01,2013-08-18 06:29:00,
2013-08-18 01:30:00,63.3,57.0,30.16,East,80,1.0,5.0,80,0.00,,CLR,0.00,VWS V14.01,2013-08-18 06:30:00,
2013-08-18 01:34:00,63.1,56.8,30.16,East,91,1.0,4.0,80,0.00,,CLR,0.00,VWS V14.01,2013-08-18 06:34:00,
2013-08-18 01:39:00,62.9,57.0,30.16,East,98,0.0,2.0,81,0.00,,CLR,0.00,VWS V14.01,2013-08-18 06:39:00,
2013-08-18 01:40:00,62.9,57.0,30.16,SSE,151,2.0,5.0,81,0.00,,CLR,0.00,VWS V14.01,2013-08-18 06:40:00,
2013-08-18 01:44:00,62.7,56.8,30.16,East,101,1.0,5.0,81,0.00,,CLR,0.00,VWS V14.01,2013-08-18 06:44:00,
2013-08-18 01:49:00,62.5,56.9,30.17,SE,134,0.0,2.0,82,0.00,,CLR,0.00,VWS V14.01,2013-08-18 06:49:00,
2013-08-18 01:50:00,62.5,56.6,30.17,East,93,2.0,5.0,81,0.00,,CLR,0.00,VWS V14.01,2013-08-18 06:50:00,
2013-08-18 01:54:00,62.3,56.7,30.17,East,91,0.0,3.0,82,0.00,,CLR,0.00,VWS V14.01,2013-08-18 06:54:00,
2013-08-18 01:59:00,62.1,56.9,30.16,East,84,0.0,1.0,83,0.00,,CLR,0.00,VWS V14.01,2013-08-18 06:59:00,
2013-08-18 02:00:00,62.2,56.6,30.16,ESE,113,0.0,3.0,82,0.00,,CLR,0.00,VWS V14.01,2013-08-18 07:00:00,
2013-08-18 02:04:00,61.9,56.7,30.16,East,87,0.0,2.0,83,0.00,,CLR,0.00,VWS V14.01,2013-08-18 07:04:00,
2013-08-18 02:09:00,61.8,56.6,30.16,East,80,1.0,2.0,83,0.00,,CLR,0.00,VWS V14.01,2013-08-18 07:09:00,
2013-08-18 02:10:00,61.8,56.6,30.16,East,91,0.0,2.0,83,0.00,,CLR,0.00,VWS V14.01,2013-08-18 07:10:00,
2013-08-18 02:14:00,61.7,56.8,30.16,SE,127,0.0,3.0,84,0.00,,CLR,0.00,VWS V14.01,2013-08-18 07:14:00,
2013-08-18 02:19:00,61.7,56.8,30.16,East,80,1.0,3.0,84,0.00,,CLR,0.00,VWS V14.01,2013-08-18 07:19:00,
2013-08-18 02:20:00,61.7,56.8,30.16,East,89,2.0,3.0,84,0.00,,CLR,0.00,VWS V14.01,2013-08-18 07:20:00,
2013-08-18 02:24:00,61.7,56.8,30.16,ESE,102,3.0,3.0,84,0.00,,CLR,0.00,VWS V14.01,2013-08-18 07:24:00,
2013-08-18 02:29:00,61.8,56.9,30.16,ESE,103,1.0,3.0,84,0.00,,CLR,0.00,VWS V14.01,2013-08-18 07:29:00,
2013-08-18 02:30:00,61.8,56.9,30.16,SE,146,2.0,5.0,84,0.00,,CLR,0.00,VWS V14.01,2013-08-18 07:30:00,
2013-08-18 02:34:00,61.7,56.8,30.16,ESE,117,0.0,4.0,84,0.00,,CLR,0.00,VWS V14.01,2013-08-18 07:34:00,
2013-08-18 02:39:00,61.6,56.7,30.16,East,84,3.0,3.0,84,0.00,,CLR,0.00,VWS V14.01,2013-08-18 07:39:00,
2013-08-18 02:40:00,61.6,56.7,30.16,East,82,2.0,4.0,84,0.00,,CLR,0.00,VWS V14.01,2013-08-18 07:40:00,
2013-08-18 02:44:00,61.6,57.0,30.16,East,84,1.0,4.0,85,0.00,,CLR,0.00,VWS V14.01,2013-08-18 07:44:00,
2013-08-18 02:49:00,61.6,57.0,30.16,ESE,109,0.0,4.0,85,0.00,,CLR,0.00,VWS V14.01,2013-08-18 07:49:00,
2013-08-18 02:50:00,61.6,57.0,30.16,East,93,4.0,4.0,85,0.00,,CLR,0.00,VWS V14.01,2013-08-18 07:50:00,
2013-08-18 02:54:00,61.6,57.0,30.16,East,93,1.0,4.0,85,0.00,,CLR,0.00,VWS V14.01,2013-08-18 07:54:00,
2013-08-18 03:00:00,61.5,57.0,30.16,ESE,103,1.0,2.0,85,0.00,,CLR,0.00,VWS V14.01,2013-08-18 08:00:00,
2013-08-18 03:05:00,61.3,56.8,30.16,ESE,103,0.0,3.0,85,0.00,,CLR,0.00,VWS V14.01,2013-08-18 08:05:00,
2013-08-18 03:10:00,61.2,56.7,30.16,East,100,0.0,4.0,85,0.00,,CLR,0.00,VWS V14.01,2013-08-18 08:10:00,
2013-08-18 03:15:00,61.0,56.8,30.16,East,91,2.0,4.0,86,0.00,,CLR,0.00,VWS V14.01,2013-08-18 08:15:00,
2013-08-18 03:20:00,61.0,56.8,30.16,ENE,72,0.0,5.0,86,0.00,,CLR,0.00,VWS V14.01,2013-08-18 08:20:00,
2013-08-18 03:25:00,60.9,56.7,30.16,East,99,1.0,5.0,86,0.00,,CLR,0.00,VWS V14.01,2013-08-18 08:25:00,
2013-08-18 03:30:00,60.8,56.6,30.16,East,81,0.0,4.0,86,0.00,,CLR,0.00,VWS V14.01,2013-08-18 08:30:00,
2013-08-18 03:35:00,60.6,56.4,30.16,ESE,104,1.0,4.0,86,0.00,,CLR,0.00,VWS V14.01,2013-08-18 08:35:00,
2013-08-18 03:40:00,60.4,56.5,30.16,ENE,75,1.0,1.0,87,0.00,,CLR,0.00,VWS V14.01,2013-08-18 08:40:00,
2013-08-18 03:45:00,60.4,56.5,30.16,East,98,1.0,4.0,87,0.00,,CLR,0.00,VWS V14.01,2013-08-18 08:45:00,
2013-08-18 03:50:00,60.3,56.4,30.16,East,86,0.0,3.0,87,0.00,,CLR,0.00,VWS V14.01,2013-08-18 08:50:00,
2013-08-18 03:55:00,60.3,56.4,30.16,East,82,0.0,3.0,87,0.00,,CLR,0.00,VWS V14.01,2013-08-18 08:55:00,
2013-08-18 04:00:00,60.2,56.6,30.16,East,86,0.0,2.0,88,0.00,,CLR,0.00,VWS V14.01,2013-08-18 09:00:00,
2013-08-18 04:05:00,60.1,56.5,30.16,ESE,108,0.0,3.0,88,0.00,,CLR,0.00,VWS V14.01,2013-08-18 09:05:00,
2013-08-18 04:10:00,60.0,56.4,30.16,ESE,106,0.0,0.0,88,0.00,,CLR,0.00,VWS V14.01,2013-08-18 09:10:00,
2013-08-18 04:15:00,59.8,56.2,30.16,East,98,0.0,0.0,88,0.00,,CLR,0.00,VWS V14.01,2013-08-18 09:15:00,
2013-08-18 04:20:00,59.7,56.5,30.16,East,98,0.0,0.0,89,0.00,,CLR,0.00,VWS V14.01,2013-08-18 09:20:00,
2013-08-18 04:25:00,59.8,56.6,30.16,ENE,77,0.0,2.0,89,0.00,,CLR,0.00,VWS V14.01,2013-08-18 09:25:00,
2013-08-18 04:30:00,59.8,56.6,30.16,ENE,77,0.0,0.0,89,0.00,,CLR,0.00,VWS V14.01,2013-08-18 09:30:00,
2013-08-18 04:35:00,59.9,56.7,30.16,ENE,77,0.0,0.0,89,0.00,,CLR,0.00,VWS V14.01,2013-08-18 09:35:00,
2013-08-18 04:40:00,59.9,56.7,30.16,ENE,77,0.0,0.0,89,0.00,,CLR,0.00,VWS V14.01,2013-08-18 09:40:00,
2013-08-18 04:45:00,59.5,56.3,30.16,ENE,77,0.0,0.0,89,0.00,,CLR,0.00,VWS V14.01,2013-08-18 09:45:00,
2013-08-18 04:50:00,59.2,56.0,30.16,ESE,103,0.0,0.0,89,0.00,,CLR,0.00,VWS V14.01,2013-08-18 09:50:00,
2013-08-18 04:55:00,59.0,56.1,30.16,ESE,103,0.0,0.0,90,0.00,,CLR,0.00,VWS V14.01,2013-08-18 09:55:00,
2013-08-18 05:00:00,58.8,55.9,30.17,ESE,103,0.0,0.0,90,0.00,,CLR,0.00,VWS V14.01,2013-08-18 10:00:00,
2013-08-18 05:05:00,58.7,55.8,30.17,ESE,103,0.0,0.0,90,0.00,,CLR,0.00,VWS V14.01,2013-08-18 10:05:00,
2013-08-18 05:10:00,58.6,55.7,30.17,East,96,0.0,0.0,90,0.00,,CLR,0.00,VWS V14.01,2013-08-18 10:10:00,
2013-08-18 05:15:00,58.4,55.5,30.17,East,96,0.0,0.0,90,0.00,,CLR,0.00,VWS V14.01,2013-08-18 10:15:00,
2013-08-18 05:20:00,58.3,55.7,30.17,East,96,0.0,0.0,91,0.00,,CLR,0.00,VWS V14.01,2013-08-18 10:20:00,
2013-08-18 05:25:00,58.1,55.5,30.17,East,96,0.0,0.0,91,0.00,,CLR,0.00,VWS V14.01,2013-08-18 10:25:00,
2013-08-18 05:30:00,57.9,55.3,30.17,East,96,0.0,0.0,91,0.00,,CLR,0.00,VWS V14.01,2013-08-18 10:30:00,
2013-08-18 05:35:00,57.9,55.3,30.18,East,96,0.0,0.0,91,0.00,,CLR,0.00,VWS V14.01,2013-08-18 10:35:00,
2013-08-18 05:40:00,57.8,55.5,30.18,East,96,0.0,0.0,92,0.00,,CLR,0.00,VWS V14.01,2013-08-18 10:40:00,
2013-08-18 05:46:00,57.8,55.5,30.18,East,96,0.0,0.0,92,0.00,,CLR,0.00,VWS V14.01,2013-08-18 10:46:00,
2013-08-18 05:50:00,57.8,55.5,30.18,East,96,0.0,0.0,92,0.00,,CLR,0.00,VWS V14.01,2013-08-18 10:50:00,
2013-08-18 05:51:00,57.7,55.4,30.18,East,96,0.0,0.0,92,0.00,,CLR,0.00,VWS V14.01,2013-08-18 10:51:00,
2013-08-18 05:56:00,57.6,55.3,30.18,East,96,0.0,0.0,92,0.00,,CLR,0.00,VWS V14.01,2013-08-18 10:56:00,
2013-08-18 06:00:00,57.5,55.2,30.18,East,96,0.0,0.0,92,0.00,,CLR,0.00,VWS V14.01,2013-08-18 11:00:00,
2013-08-18 06:01:00,57.5,55.2,30.18,East,96,0.0,0.0,92,0.00,,CLR,0.00,VWS V14.01,2013-08-18 11:01:00,
2013-08-18 06:06:00,57.4,55.1,30.18,East,96,0.0,0.0,92,0.00,,CLR,0.00,VWS V14.01,2013-08-18 11:06:00,
2013-08-18 06:10:00,57.4,55.1,30.18,East,96,0.0,0.0,92,0.00,,CLR,0.00,VWS V14.01,2013-08-18 11:10:00,
2013-08-18 06:11:00,57.3,55.0,30.18,East,96,0.0,0.0,92,0.00,,CLR,0.00,VWS V14.01,2013-08-18 11:11:00,
2013-08-18 06:16:00,57.1,54.8,30.18,East,96,0.0,0.0,92,0.00,,CLR,0.00,VWS V14.01,2013-08-18 11:16:00,
2013-08-18 06:20:00,57.0,54.7,30.18,East,96,0.0,0.0,92,0.00,,CLR,0.00,VWS V14.01,2013-08-18 11:20:00,
2013-08-18 06:21:00,57.0,55.0,30.18,East,96,0.0,0.0,93,0.00,,,0.00,VWS V14.01,2013-08-18 11:21:00,
2013-08-18 06:26:00,57.0,55.0,30.19,East,94,0.0,0.0,93,0.00,,,0.00,VWS V14.01,2013-08-18 11:26:00,
2013-08-18 06:30:00,57.0,55.0,30.19,East,95,0.0,0.0,93,0.00,,CLR,0.00,VWS V14.01,2013-08-18 11:30:00,
2013-08-18 06:31:00,57.0,55.0,30.19,East,95,0.0,0.0,93,0.00,,,0.00,VWS V14.01,2013-08-18 11:31:00,
2013-08-18 06:36:00,57.2,55.2,30.19,East,95,0.0,0.0,93,0.00,,,0.00,VWS V14.01,2013-08-18 11:36:00,
2013-08-18 06:40:00,57.2,55.2,30.19,East,95,0.0,0.0,93,0.00,,CLR,0.00,VWS V14.01,2013-08-18 11:40:00,
2013-08-18 06:41:00,57.2,55.2,30.19,East,95,0.0,0.0,93,0.00,,CLR,0.00,VWS V14.01,2013-08-18 11:41:00,
2013-08-18 06:46:00,57.3,55.3,30.19,East,94,0.0,0.0,93,0.00,,CLR,0.00,VWS V14.01,2013-08-18 11:46:00,
2013-08-18 06:50:00,57.4,55.4,30.19,East,95,0.0,0.0,93,0.00,,CLR,0.00,VWS V14.01,2013-08-18 11:50:00,
2013-08-18 06:51:00,57.4,55.4,30.19,East,94,0.0,0.0,93,0.00,,CLR,0.00,VWS V14.01,2013-08-18 11:51:00,
2013-08-18 06:56:00,57.6,55.6,30.19,ESE,103,1.0,1.0,93,0.00,,CLR,0.00,VWS V14.01,2013-08-18 11:56:00,
2013-08-18 07:00:00,57.6,55.6,30.19,ESE,103,0.0,1.0,93,0.00,,CLR,0.00,VWS V14.01,2013-08-18 12:00:00,
2013-08-18 07:01:00,57.8,55.8,30.19,East,99,0.0,1.0,93,0.00,,,0.00,VWS V14.01,2013-08-18 12:01:00,
2013-08-18 07:06:00,58.1,56.1,30.19,West,262,0.0,1.0,93,0.00,,,0.00,VWS V14.01,2013-08-18 12:06:00,
2013-08-18 07:10:00,58.3,56.3,30.19,West,263,0.0,1.0,93,0.00,,CLR,0.00,VWS V14.01,2013-08-18 12:10:00,
2013-08-18 07:11:00,58.9,56.9,30.19,West,263,0.0,0.0,93,0.00,,,0.00,VWS V14.01,2013-08-18 12:11:00,
2013-08-18 07:16:00,59.7,57.4,30.20,West,263,0.0,0.0,92,0.00,,,0.00,VWS V14.01,2013-08-18 12:16:00,
2013-08-18 07:20:00,59.9,57.3,30.20,West,263,0.0,0.0,91,0.00,,CLR,0.00,VWS V14.01,2013-08-18 12:20:00,
2013-08-18 07:21:00,60.0,57.1,30.20,West,263,0.0,0.0,90,0.00,,,0.00,VWS V14.01,2013-08-18 12:21:00,
2013-08-18 07:26:00,60.1,57.2,30.20,West,263,0.0,0.0,90,0.00,,,0.00,VWS V14.01,2013-08-18 12:26:00,
2013-08-18 07:30:00,60.3,57.4,30.20,West,263,0.0,0.0,90,0.00,,CLR,0.00,VWS V14.01,2013-08-18 12:30:00,
2013-08-18 07:31:00,60.8,57.5,30.20,East,91,2.0,2.0,89,0.00,,,0.00,VWS V14.01,2013-08-18 12:31:00,
2013-08-18 07:36:00,61.5,57.9,30.20,East,80,0.0,2.0,88,0.00,,,0.00,VWS V14.01,2013-08-18 12:36:00,
2013-08-18 07:40:00,61.9,58.3,30.20,East,81,0.0,2.0,88,0.00,,CLR,0.00,VWS V14.01,2013-08-18 12:40:00,
2013-08-18 07:41:00,62.7,58.5,30.20,East,89,0.0,1.0,86,0.00,,,0.00,VWS V14.01,2013-08-18 12:41:00,
2013-08-18 07:46:00,63.5,58.9,30.20,East,82,0.0,2.0,85,0.00,,,0.00,VWS V14.01,2013-08-18 12:46:00,
2013-08-18 07:50:00,63.8,59.2,30.20,ENE,74,0.0,2.0,85,0.00,,CLR,0.00,VWS V14.01,2013-08-18 12:50:00,
2013-08-18 07:51:00,64.5,59.2,30.21,ENE,74,0.0,1.0,83,0.00,,,0.00,VWS V14.01,2013-08-18 12:51:00,
2013-08-18 07:56:00,65.4,59.4,30.21,ESE,117,2.0,2.0,81,0.00,,,0.00,VWS V14.01,2013-08-18 12:56:00,
2013-08-18 08:00:00,65.3,59.3,30.21,SE,134,0.0,2.0,81,0.00,,CLR,0.00,VWS V14.01,2013-08-18 13:00:00,
2013-08-18 08:01:00,65.6,59.6,30.21,SE,131,0.0,0.0,81,0.00,,,0.00,VWS V14.01,2013-08-18 13:01:00,
2013-08-18 08:06:00,65.9,59.2,30.21,East,83,1.0,3.0,79,0.00,,,0.00,VWS V14.01,2013-08-18 13:06:00,
2013-08-18 08:10:00,66.0,59.7,30.21,East,82,1.0,3.0,80,0.00,,CLR,0.00,VWS V14.01,2013-08-18 13:10:00,
2013-08-18 08:11:00,66.4,59.7,30.21,ENE,71,0.0,2.0,79,0.00,,,0.00,VWS V14.01,2013-08-18 13:11:00,
2013-08-18 08:16:00,66.8,59.7,30.21,East,91,2.0,3.0,78,0.00,,,0.00,VWS V14.01,2013-08-18 13:16:00,
2013-08-18 08:20:00,66.8,59.4,30.21,ESE,116,1.0,3.0,77,0.00,,CLR,0.00,VWS V14.01,2013-08-18 13:20:00,
2013-08-18 08:21:00,67.0,60.3,30.21,NE,54,0.0,2.0,79,0.00,,,0.00,VWS V14.01,2013-08-18 13:21:00,
2013-08-18 08:27:00,67.9,60.4,30.21,East,80,0.0,2.0,77,0.00,,,0.00,VWS V14.01,2013-08-18 13:27:00,
2013-08-18 08:30:00,68.1,59.9,30.21,ENE,67,2.0,2.0,75,0.00,,CLR,0.00,VWS V14.01,2013-08-18 13:30:00,
2013-08-18 08:32:00,68.5,60.3,30.21,East,79,0.0,2.0,75,0.00,,,0.00,VWS V14.01,2013-08-18 13:32:00,
2013-08-18 08:37:00,68.5,59.9,30.21,ESE,105,1.0,3.0,74,0.00,,,0.00,VWS V14.01,2013-08-18 13:37:00,
2013-08-18 08:40:00,68.5,60.3,30.21,East,90,2.0,3.0,75,0.00,,CLR,0.00,VWS V14.01,2013-08-18 13:40:00,
2013-08-18 08:42:00,68.8,60.9,30.21,ENE,75,1.0,2.0,76,0.00,,CLR,0.00,VWS V14.01,2013-08-18 13:42:00,
2013-08-18 08:47:00,69.3,60.7,30.21,ESE,111,2.0,3.0,74,0.00,,CLR,0.00,VWS V14.01,2013-08-18 13:47:00,
2013-08-18 08:50:00,69.3,60.3,30.21,ESE,102,1.0,3.0,73,0.00,,CLR,0.00,VWS V14.01,2013-08-18 13:50:00,
2013-08-18 08:52:00,69.5,61.2,30.20,East,97,2.0,2.0,75,0.00,,CLR,0.00,VWS V14.01,2013-08-18 13:52:00,
2013-08-18 08:57:00,69.8,61.2,30.20,ENE,72,0.0,3.0,74,0.00,,CLR,0.00,VWS V14.01,2013-08-18 13:57:00,
2013-08-18 09:00:00,69.9,61.2,30.20,ENE,77,2.0,3.0,74,0.00,,CLR,0.00,VWS V14.01,2013-08-18 14:00:00,
2013-08-18 09:02:00,70.1,61.0,30.21,ENE,78,0.0,4.0,73,0.00,,CLR,0.00,VWS V14.01,2013-08-18 14:02:00,
2013-08-18 09:07:00,70.5,61.0,30.20,East,94,4.0,4.0,72,0.00,,CLR,0.00,VWS V14.01,2013-08-18 14:07:00,
2013-08-18 09:10:00,70.6,60.3,30.20,East,90,4.0,6.0,70,0.00,,CLR,0.00,VWS V14.01,2013-08-18 14:10:00,
2013-08-18 09:12:00,70.9,60.6,30.20,SE,143,1.0,4.0,70,0.00,,CLR,0.00,VWS V14.01,2013-08-18 14:12:00,
2013-08-18 09:17:00,71.6,61.3,30.20,ENE,76,1.0,4.0,70,0.00,,CLR,0.00,VWS V14.01,2013-08-18 14:17:00,
2013-08-18 09:20:00,71.6,61.3,30.20,SSE,156,2.0,4.0,70,0.00,,CLR,0.00,VWS V14.01,2013-08-18 14:20:00,
2013-08-18 09:22:00,72.0,61.3,30.20,ESE,114,1.0,4.0,69,0.00,,CLR,0.00,VWS V14.01,2013-08-18 14:22:00,
2013-08-18 09:27:00,72.3,60.7,30.20,East,101,3.0,4.0,67,0.00,,CLR,0.00,VWS V14.01,2013-08-18 14:27:00,
2013-08-18 09:30:00,72.3,61.2,30.20,South,172,1.0,4.0,68,0.00,,CLR,0.00,VWS V14.01,2013-08-18 14:30:00,
2013-08-18 09:32:00,72.7,61.1,30.20,SE,139,3.0,3.0,67,0.00,,CLR,0.00,VWS V14.01,2013-08-18 14:32:00,
2013-08-18 09:37:00,72.9,60.9,30.21,SE,133,2.0,4.0,66,0.00,,CLR,0.00,VWS V14.01,2013-08-18 14:37:00,
2013-08-18 09:40:00,72.9,61.3,30.21,SE,132,1.0,4.0,67,0.00,,CLR,0.00,VWS V14.01,2013-08-18 14:40:00,
2013-08-18 09:42:00,73.0,61.4,30.21,SE,125,2.0,3.0,67,0.00,,CLR,0.00,VWS V14.01,2013-08-18 14:42:00,
2013-08-18 09:47:00,72.9,61.3,30.21,ESE,110,1.0,3.0,67,0.00,,CLR,0.00,VWS V14.01,2013-08-18 14:47:00,
2013-08-18 09:50:00,73.0,61.8,30.21,East,85,1.0,3.0,68,0.00,,CLR,0.00,VWS V14.01,2013-08-18 14:50:00,
2013-08-18 09:52:00,73.7,62.5,30.21,East,87,2.0,2.0,68,0.00,,CLR,0.00,VWS V14.01,2013-08-18 14:52:00,
2013-08-18 09:57:00,74.3,62.2,30.21,NNE,27,0.0,2.0,66,0.00,,CLR,0.00,VWS V14.01,2013-08-18 14:57:00,
2013-08-18 10:00:00,74.4,62.3,30.21,East,84,3.0,3.0,66,0.00,,CLR,0.00,VWS V14.01,2013-08-18 15:00:00,
2013-08-18 10:02:00,74.5,62.8,30.21,ENE,62,0.0,4.0,67,0.00,,CLR,0.00,VWS V14.01,2013-08-18 15:02:00,
2013-08-18 10:07:00,74.5,62.0,30.21,ENE,72,1.0,4.0,65,0.00,,CLR,0.00,VWS V14.01,2013-08-18 15:07:00,
2013-08-18 10:10:00,74.5,62.0,30.21,ESE,111,4.0,4.0,65,0.00,,CLR,0.00,VWS V14.01,2013-08-18 15:10:00,
2013-08-18 10:12:00,74.8,62.3,30.21,East,90,0.0,4.0,65,0.00,,CLR,0.00,VWS V14.01,2013-08-18 15:12:00,
2013-08-18 10:17:00,75.5,61.6,30.21,East,80,0.0,4.0,62,0.00,,CLR,0.00,VWS V14.01,2013-08-18 15:17:00,
2013-08-18 10:20:00,75.5,61.6,30.21,ESE,120,3.0,4.0,62,0.00,,CLR,0.00,VWS V14.01,2013-08-18 15:20:00,
2013-08-18 10:22:00,75.3,61.8,30.21,North,5,0.0,4.0,63,0.00,,CLR,0.00,VWS V14.01,2013-08-18 15:22:00,
2013-08-18 10:27:00,75.4,62.8,30.21,NNE,23,1.0,4.0,65,0.00,,CLR,0.00,VWS V14.01,2013-08-18 15:27:00,
2013-08-18 10:30:00,75.5,62.5,30.21,NNE,20,1.0,4.0,64,0.00,,CLR,0.00,VWS V14.01,2013-08-18 15:30:00,
2013-08-18 10:32:00,75.9,62.0,30.21,East,91,5.0,5.0,62,0.00,,CLR,0.00,VWS V14.01,2013-08-18 15:32:00,
2013-08-18 10:37:00,75.8,61.4,30.20,NE,53,0.0,6.0,61,0.00,,CLR,0.00,VWS V14.01,2013-08-18 15:37:00,
2013-08-18 10:40:00,75.8,61.9,30.20,NE,52,0.0,6.0,62,0.00,,CLR,0.00,VWS V14.01,2013-08-18 15:40:00,
2013-08-18 10:42:00,76.1,60.8,30.20,SE,141,4.0,8.0,59,0.00,,CLR,0.00,VWS V14.01,2013-08-18 15:42:00,
2013-08-18 10:47:00,76.1,61.2,30.20,NNE,29,1.0,8.0,60,0.00,,CLR,0.00,VWS V14.01,2013-08-18 15:47:00,
2013-08-18 10:50:00,76.1,61.2,30.20,NNE,29,0.0,8.0,60,0.00,,CLR,0.00,VWS V14.01,2013-08-18 15:50:00,
2013-08-18 10:52:00,76.2,61.3,30.20,NNE,30,2.0,5.0,60,0.00,,CLR,0.00,VWS V14.01,2013-08-18 15:52:00,
2013-08-18 10:57:00,76.4,60.5,30.20,ESE,113,1.0,5.0,58,0.00,,CLR,0.00,VWS V14.01,2013-08-18 15:57:00,
2013-08-18 11:00:00,76.5,60.6,30.20,East,98,3.0,5.0,58,0.00,,CLR,0.00,VWS V14.01,2013-08-18 16:00:00,
2013-08-18 11:03:00,77.0,61.6,30.20,NNE,32,1.0,3.0,59,0.00,,CLR,0.00,VWS V14.01,2013-08-18 16:03:00,
2013-08-18 11:08:00,77.1,60.7,30.20,ENE,75,0.0,4.0,57,0.00,,CLR,0.00,VWS V14.01,2013-08-18 16:08:00,
2013-08-18 11:10:00,77.2,60.8,30.20,ENE,74,0.0,4.0,57,0.00,,CLR,0.00,VWS V14.01,2013-08-18 16:10:00,
2013-08-18 11:13:00,77.2,59.8,30.19,East,98,3.0,6.0,55,0.00,,CLR,0.00,VWS V14.01,2013-08-18 16:13:00,
2013-08-18 11:18:00,77.0,59.6,30.19,East,101,4.0,6.0,55,0.00,,CLR,0.00,VWS V14.01,2013-08-18 16:18:00,
2013-08-18 11:20:00,77.0,60.1,30.19,NNE,18,1.0,6.0,56,0.00,,CLR,0.00,VWS V14.01,2013-08-18 16:20:00,
2013-08-18 11:23:00,77.1,60.7,30.19,East,100,0.0,4.0,57,0.00,,CLR,0.00,VWS V14.01,2013-08-18 16:23:00,
2013-08-18 11:28:00,78.0,60.5,30.19,NW,323,0.0,4.0,55,0.00,,CLR,0.00,VWS V14.01,2013-08-18 16:28:00,
2013-08-18 11:30:00,78.0,60.5,30.19,NW,323,0.0,4.0,55,0.00,,CLR,0.00,VWS V14.01,2013-08-18 16:30:00,
2013-08-18 11:33:00,77.8,61.9,30.19,East,89,4.0,6.0,58,0.00,,CLR,0.00,VWS V14.01,2013-08-18 16:33:00,
2013-08-18 11:38:00,78.1,61.1,30.19,ESE,106,1.0,6.0,56,0.00,,CLR,0.00,VWS V14.01,2013-08-18 16:38:00,
2013-08-18 11:40:00,78.1,61.1,30.19,ESE,106,1.0,6.0,56,0.00,,CLR,0.00,VWS V14.01,2013-08-18 16:40:00,
2013-08-18 11:43:00,77.8,60.9,30.19,ESE,123,4.0,7.0,56,0.00,,CLR,0.00,VWS V14.01,2013-08-18 16:43:00,
2013-08-18 11:48:00,77.9,61.0,30.19,NNE,23,3.0,7.0,56,0.00,,CLR,0.00,VWS V14.01,2013-08-18 16:48:00,
2013-08-18 11:50:00,77.9,61.0,30.19,NNE,23,3.0,7.0,56,0.00,,CLR,0.00,VWS V14.01,2013-08-18 16:50:00,
2013-08-18 11:53:00,77.9,59.9,30.19,NNE,20,1.0,7.0,54,0.00,,CLR,0.00,VWS V14.01,2013-08-18 16:53:00,
2013-08-18 11:58:00,78.2,61.2,30.19,SE,132,1.0,2.0,56,0.00,,CLR,0.00,VWS V14.01,2013-08-18 16:58:00,
2013-08-18 12:00:00,78.2,61.7,30.19,SE,129,2.0,7.0,57,0.00,,CLR,0.00,VWS V14.01,2013-08-18 17:00:00,
2013-08-18 12:03:00,78.6,60.6,30.19,NNW,328,0.0,2.0,54,0.00,,CLR,0.00,VWS V14.01,2013-08-18 17:03:00,
2013-08-18 12:08:00,79.2,60.6,30.18,ESE,111,2.0,2.0,53,0.00,,CLR,0.00,VWS V14.01,2013-08-18 17:08:00,
2013-08-18 12:10:00,79.2,60.6,30.18,NNE,15,1.0,5.0,53,0.00,,CLR,0.00,VWS V14.01,2013-08-18 17:10:00,
2013-08-18 12:13:00,79.3,60.7,30.18,NNE,29,0.0,3.0,53,0.00,,CLR,0.00,VWS V14.01,2013-08-18 17:13:00,
2013-08-18 12:18:00,79.5,61.4,30.18,NE,36,2.0,3.0,54,0.00,,CLR,0.00,VWS V14.01,2013-08-18 17:18:00,
2013-08-18 12:20:00,79.5,61.4,30.18,North,357,2.0,4.0,54,0.00,,CLR,0.00,VWS V14.01,2013-08-18 17:20:00,
2013-08-18 12:23:00,79.3,61.2,30.18,WSW,252,1.0,3.0,54,0.00,,SCT100,0.00,VWS V14.01,2013-08-18 17:23:00,
2013-08-18 12:28:00,79.4,60.3,30.18,NE,41,0.0,0.0,52,0.00,,SCT100,0.00,VWS V14.01,2013-08-18 17:28:00,
2013-08-18 12:30:00,79.4,60.3,30.18,NE,41,0.0,5.0,52,0.00,,CLR,0.00,VWS V14.01,2013-08-18 17:30:00,
2013-08-18 12:33:00,79.5,60.3,30.18,SE,129,1.0,5.0,52,0.00,,SCT100,0.00,VWS V14.01,2013-08-18 17:33:00,
2013-08-18 12:38:00,79.3,61.2,30.17,NNE,19,1.0,1.0,54,0.00,,SCT100,0.00,VWS V14.01,2013-08-18 17:38:00,
2013-08-18 12:40:00,79.3,60.7,30.18,ENE,63,0.0,8.0,53,0.00,,CLR,0.00,VWS V14.01,2013-08-18 17:40:00,
2013-08-18 12:43:00,79.4,61.8,30.17,NNE,25,0.0,7.0,55,0.00,,SCT100,0.00,VWS V14.01,2013-08-18 17:43:00,
2013-08-18 12:48:00,79.2,61.1,30.17,ENE,74,0.0,0.0,54,0.00,,SCT100,0.00,VWS V14.01,2013-08-18 17:48:00,
2013-08-18 12:50:00,79.2,61.1,30.17,ENE,74,0.0,7.0,54,0.00,,CLR,0.00,VWS V14.01,2013-08-18 17:50:00,
2013-08-18 12:53:00,79.4,60.3,30.17,SE,128,1.0,4.0,52,0.00,,SCT100,0.00,VWS V14.01,2013-08-18 17:53:00,
2013-08-18 12:58:00,79.1,61.0,30.17,ESE,114,2.0,3.0,54,0.00,,SCT100,0.00,VWS V14.01,2013-08-18 17:58:00,
2013-08-18 13:00:00,79.2,61.1,30.17,East,79,3.0,6.0,54,0.00,,CLR,0.00,VWS V14.01,2013-08-18 18:00:00,
2013-08-18 13:03:00,79.1,60.5,30.17,SSE,165,2.0,5.0,53,0.00,,SCT110,0.00,VWS V14.01,2013-08-18 18:03:00,
2013-08-18 13:08:00,79.6,60.4,30.17,South,183,3.0,4.0,52,0.00,,SCT110,0.00,VWS V14.01,2013-08-18 18:08:00,
2013-08-18 13:10:00,79.6,61.0,30.17,SSE,162,4.0,6.0,53,0.00,,CLR,0.00,VWS V14.01,2013-08-18 18:10:00,
2013-08-18 13:13:00,79.0,59.9,30.16,SE,135,1.0,7.0,52,0.00,,SCT110,0.00,VWS V14.01,2013-08-18 18:13:00,
2013-08-18 13:18:00,79.1,60.5,30.16,ESE,120,3.0,6.0,53,0.00,,SCT110,0.00,VWS V14.01,2013-08-18 18:18:00,
2013-08-18 13:20:00,79.1,60.5,30.16,ENE,73,3.0,7.0,53,0.00,,CLR,0.00,VWS V14.01,2013-08-18 18:20:00,
2013-08-18 13:23:00,79.5,61.9,30.16,SSE,158,3.0,6.0,55,0.00,,CLR,0.00,VWS V14.01,2013-08-18 18:23:00,
2013-08-18 13:28:00,79.9,61.3,30.16,SSE,165,1.0,3.0,53,0.00,,CLR,0.00,VWS V14.01,2013-08-18 18:28:00,
2013-08-18 13:30:00,79.8,60.6,30.16,SSE,153,1.0,6.0,52,0.00,,CLR,0.00,VWS V14.01,2013-08-18 18:30:00,
2013-08-18 13:34:00,80.1,60.4,30.16,ENE,65,1.0,3.0,51,0.00,,CLR,0.00,VWS V14.01,2013-08-18 18:34:00,
2013-08-18 13:39:00,79.8,60.6,30.16,East,86,0.0,0.0,52,0.00,,CLR,0.00,VWS V14.01,2013-08-18 18:39:00,
2013-08-18 13:40:00,79.8,60.1,30.16,East,90,0.0,3.0,51,0.00,,CLR,0.00,VWS V14.01,2013-08-18 18:40:00,
2013-08-18 13:44:00,79.6,58.2,30.16,East,92,4.0,6.0,48,0.00,,CLR,0.00,VWS V14.01,2013-08-18 18:44:00,
2013-08-18 13:49:00,79.5,59.2,30.16,NW,322,1.0,3.0,50,0.00,,CLR,0.00,VWS V14.01,2013-08-18 18:49:00,
2013-08-18 13:50:00,79.5,58.7,30.16,NNE,23,1.0,6.0,49,0.00,,CLR,0.00,VWS V14.01,2013-08-18 18:50:00,
2013-08-18 13:54:00,80.0,59.1,30.16,NE,51,0.0,3.0,49,0.00,,CLR,0.00,VWS V14.01,2013-08-18 18:54:00,
2013-08-18 13:59:00,80.3,59.4,30.15,SE,136,1.0,2.0,49,0.00,,CLR,0.00,VWS V14.01,2013-08-18 18:59:00,
2013-08-18 14:00:00,80.2,60.5,30.15,South,173,2.0,3.0,51,0.00,,CLR,0.00,VWS V14.01,2013-08-18 19:00:00,
2013-08-18 14:04:00,80.7,60.9,30.15,SSE,150,4.0,5.0,51,0.00,,CLR,0.00,VWS V14.01,2013-08-18 19:04:00,
2013-08-18 14:09:00,80.5,60.2,30.15,SE,140,4.0,6.0,50,0.00,,CLR,0.00,VWS V14.01,2013-08-18 19:09:00,
2013-08-18 14:10:00,80.7,60.3,30.15,ENE,61,1.0,5.0,50,0.00,,CLR,0.00,VWS V14.01,2013-08-18 19:10:00,
2013-08-18 14:14:00,79.8,59.0,30.15,SSE,148,3.0,6.0,49,0.00,,CLR,0.00,VWS V14.01,2013-08-18 19:14:00,
2013-08-18 14:19:00,79.9,59.6,30.15,NNE,21,1.0,4.0,50,0.00,,CLR,0.00,VWS V14.01,2013-08-18 19:19:00,
2013-08-18 14:20:00,79.8,59.5,30.15,East,101,4.0,6.0,50,0.00,,CLR,0.00,VWS V14.01,2013-08-18 19:20:00,
2013-08-18 14:24:00,80.2,59.3,30.15,East,90,1.0,4.0,49,0.00,,CLR,0.00,VWS V14.01,2013-08-18 19:24:00,
2013-08-18 14:29:00,80.1,59.8,30.15,SSE,150,1.0,5.0,50,0.00,,CLR,0.00,VWS V14.01,2013-08-18 19:29:00,
2013-08-18 14:30:00,80.1,59.8,30.15,SE,142,5.0,7.0,50,0.00,,CLR,0.00,VWS V14.01,2013-08-18 19:30:00,
2013-08-18 14:34:00,80.3,59.4,30.14,NE,39,0.0,5.0,49,0.00,,CLR,0.00,VWS V14.01,2013-08-18 19:34:00,
2013-08-18 14:39:00,80.4,59.5,30.14,SSW,200,2.0,4.0,49,0.00,,CLR,0.00,VWS V14.01,2013-08-18 19:39:00,
2013-08-18 14:40:00,80.3,59.4,30.15,ESE,117,2.0,5.0,49,0.00,,CLR,0.00,VWS V14.01,2013-08-18 19:40:00,
2013-08-18 14:44:00,80.4,60.6,30.14,SE,139,1.0,4.0,51,0.00,,CLR,0.00,VWS V14.01,2013-08-18 19:44:00,
2013-08-18 14:49:00,80.7,59.2,30.14,East,79,5.0,5.0,48,0.00,,CLR,0.00,VWS V14.01,2013-08-18 19:49:00,
2013-08-18 14:50:00,80.6,59.1,30.14,SSE,161,0.0,5.0,48,0.00,,CLR,0.00,VWS V14.01,2013-08-18 19:50:00,
2013-08-18 14:54:00,80.5,58.4,30.14,East,89,0.0,5.0,47,0.00,,CLR,0.00,VWS V14.01,2013-08-18 19:54:00,
2013-08-18 14:59:00,80.5,58.4,30.14,ENE,65,0.0,1.0,47,0.00,,CLR,0.00,VWS V14.01,2013-08-18 19:59:00,
2013-08-18 15:00:00,80.5,58.4,30.14,ENE,65,0.0,5.0,47,0.00,,CLR,0.00,VWS V14.01,2013-08-18 20:00:00,
2013-08-18 15:04:00,80.6,58.5,30.14,East,101,0.0,1.0,47,0.00,,CLR,0.00,VWS V14.01,2013-08-18 20:04:00,
2013-08-18 15:09:00,80.6,60.3,30.14,ENE,74,0.0,4.0,50,0.00,,CLR,0.00,VWS V14.01,2013-08-18 20:09:00,
2013-08-18 15:10:00,80.6,59.7,30.14,NE,43,0.0,3.0,49,0.00,,CLR,0.00,VWS V14.01,2013-08-18 20:10:00,
2013-08-18 15:14:00,80.2,58.8,30.13,East,95,1.0,4.0,48,0.00,,CLR,0.00,VWS V14.01,2013-08-18 20:14:00,
2013-08-18 15:19:00,80.0,58.6,30.13,ESE,110,3.0,4.0,48,0.00,,CLR,0.00,VWS V14.01,2013-08-18 20:19:00,
2013-08-18 15:20:00,80.1,57.5,30.13,SE,132,4.0,5.0,46,0.00,,CLR,0.00,VWS V14.01,2013-08-18 20:20:00,
2013-08-18 15:24:00,79.5,57.5,30.13,ESE,123,2.0,5.0,47,0.00,,CLR,0.00,VWS V14.01,2013-08-18 20:24:00,
2013-08-18 15:29:00,79.4,57.4,30.13,SSW,197,1.0,3.0,47,0.00,,CLR,0.00,VWS V14.01,2013-08-18 20:29:00,
2013-08-18 15:30:00,79.4,56.8,30.13,WSW,258,3.0,5.0,46,0.00,,CLR,0.00,VWS V14.01,2013-08-18 20:30:00,
2013-08-18 15:34:00,79.5,58.7,30.13,SSE,163,5.0,5.0,49,0.00,,CLR,0.00,VWS V14.01,2013-08-18 20:34:00,
2013-08-18 15:39:00,79.5,59.8,30.13,South,180,4.0,5.0,51,0.00,,CLR,0.00,VWS V14.01,2013-08-18 20:39:00,
2013-08-18 15:40:00,79.4,58.0,30.13,SSE,155,1.0,5.0,48,0.00,,CLR,0.00,VWS V14.01,2013-08-18 20:40:00,
2013-08-18 15:44:00,79.3,56.8,30.13,SW,233,0.0,5.0,46,0.00,,CLR,0.00,VWS V14.01,2013-08-18 20:44:00,
2013-08-18 15:49:00,79.3,57.3,30.13,East,98,0.0,4.0,47,0.00,,CLR,0.00,VWS V14.01,2013-08-18 20:49:00,
2013-08-18 15:50:00,79.3,58.5,30.13,East,92,1.0,5.0,49,0.00,,CLR,0.00,VWS V14.01,2013-08-18 20:50:00,
2013-08-18 15:54:00,79.2,57.2,30.13,East,93,2.0,5.0,47,0.00,,CLR,0.00,VWS V14.01,2013-08-18 20:54:00,
2013-08-18 15:59:00,79.1,57.2,30.12,ENE,62,0.0,0.0,47,0.00,,CLR,0.00,VWS V14.01,2013-08-18 20:59:00,
2013-08-18 16:00:00,79.1,56.6,30.13,East,79,0.0,5.0,46,0.00,,CLR,0.00,VWS V14.01,2013-08-18 21:00:00,
2013-08-18 16:04:00,79.0,58.2,30.12,ENE,61,0.0,0.0,49,0.00,,CLR,0.00,VWS V14.01,2013-08-18 21:04:00,
2013-08-18 16:09:00,78.9,57.0,30.12,SE,135,2.0,2.0,47,0.00,,CLR,0.00,VWS V14.01,2013-08-18 21:09:00,
2013-08-18 16:10:00,78.9,57.0,30.12,ESE,103,2.0,2.0,47,0.00,,CLR,0.00,VWS V14.01,2013-08-18 21:10:00,
2013-08-18 16:15:00,79.1,56.6,30.12,SW,219,0.0,2.0,46,0.00,,CLR,0.00,VWS V14.01,2013-08-18 21:15:00,
2013-08-18 16:20:00,79.4,58.0,30.12,East,100,0.0,2.0,48,0.00,,CLR,0.00,VWS V14.01,2013-08-18 21:20:00,
2013-08-18 16:25:00,79.3,57.9,30.12,SE,136,4.0,5.0,48,0.00,,CLR,0.00,VWS V14.01,2013-08-18 21:25:00,
2013-08-18 16:30:00,79.2,58.4,30.12,SE,127,1.0,3.0,49,0.00,,CLR,0.00,VWS V14.01,2013-08-18 21:30:00,
2013-08-18 16:35:00,79.3,57.3,30.12,SW,220,0.0,3.0,47,0.00,,CLR,0.00,VWS V14.01,2013-08-18 21:35:00,
2013-08-18 16:40:00,79.5,57.5,30.11,SSE,160,1.0,2.0,47,0.00,,CLR,0.00,VWS V14.01,2013-08-18 21:40:00,
2013-08-18 16:45:00,79.4,57.4,30.11,SE,136,0.0,3.0,47,0.00,,CLR,0.00,VWS V14.01,2013-08-18 21:45:00,
2013-08-18 16:50:00,79.4,58.0,30.11,ENE,66,0.0,1.0,48,0.00,,CLR,0.00,VWS V14.01,2013-08-18 21:50:00,
2013-08-18 16:55:00,79.2,57.2,30.11,ENE,67,0.0,1.0,47,0.00,,CLR,0.00,VWS V14.01,2013-08-18 21:55:00,
2013-08-18 17:00:00,79.0,57.7,30.11,ESE,110,0.0,1.0,48,0.00,,CLR,0.00,VWS V14.01,2013-08-18 22:00:00,
2013-08-18 17:05:00,79.1,58.3,30.11,ESE,110,0.0,1.0,49,0.00,,CLR,0.00,VWS V14.01,2013-08-18 22:05:00,
2013-08-18 17:10:00,79.1,58.3,30.11,East,82,0.0,0.0,49,0.00,,CLR,0.00,VWS V14.01,2013-08-18 22:10:00,
2013-08-18 17:15:00,78.9,58.7,30.11,East,83,0.0,0.0,50,0.00,,CLR,0.00,VWS V14.01,2013-08-18 22:15:00,
2013-08-18 17:20:00,78.8,58.6,30.11,SE,128,0.0,0.0,50,0.00,,CLR,0.00,VWS V14.01,2013-08-18 22:20:00,
2013-08-18 17:25:00,78.9,57.6,30.11,East,85,0.0,0.0,48,0.00,,CLR,0.00,VWS V14.01,2013-08-18 22:25:00,
2013-08-18 17:30:00,78.9,58.1,30.11,ESE,114,0.0,0.0,49,0.00,,CLR,0.00,VWS V14.01,2013-08-18 22:30:00,
2013-08-18 17:35:00,79.0,58.8,30.11,NNE,22,0.0,0.0,50,0.00,,CLR,0.00,VWS V14.01,2013-08-18 22:35:00,
2013-08-18 17:40:00,79.0,59.3,30.11,ESE,105,3.0,4.0,51,0.00,,CLR,0.00,VWS V14.01,2013-08-18 22:40:00,
2013-08-18 17:45:00,79.0,58.8,30.10,ESE,115,1.0,4.0,50,0.00,,CLR,0.00,VWS V14.01,2013-08-18 22:45:00,
2013-08-18 17:50:00,78.9,58.7,30.11,East,84,0.0,0.0,50,0.00,,CLR,0.00,VWS V14.01,2013-08-18 22:50:00,
2013-08-18 17:55:00,78.8,59.2,30.11,East,85,0.0,0.0,51,0.00,,CLR,0.00,VWS V14.01,2013-08-18 22:55:00,
2013-08-18 18:00:00,78.7,58.5,30.11,East,91,1.0,2.0,50,0.00,,CLR,0.00,VWS V14.01,2013-08-18 23:00:00,
2013-08-18 18:05:00,78.6,59.0,30.11,East,90,0.0,2.0,51,0.00,,CLR,0.00,VWS V14.01,2013-08-18 23:05:00,
2013-08-18 18:10:00,78.6,60.1,30.11,East,88,0.0,1.0,53,0.00,,CLR,0.00,VWS V14.01,2013-08-18 23:10:00,
2013-08-18 18:15:00,78.4,60.4,30.11,ESE,115,1.0,1.0,54,0.00,,CLR,0.00,VWS V14.01,2013-08-18 23:15:00,
2013-08-18 18:20:00,78.4,60.4,30.11,ESE,103,0.0,2.0,54,0.00,,CLR,0.00,VWS V14.01,2013-08-18 23:20:00,
2013-08-18 18:25:00,78.3,59.8,30.11,ESE,103,0.0,2.0,53,0.00,,CLR,0.00,VWS V14.01,2013-08-18 23:25:00,
2013-08-18 18:30:00,78.1,60.1,30.11,ESE,103,0.0,1.0,54,0.00,,CLR,0.00,VWS V14.01,2013-08-18 23:30:00,
2013-08-18 18:35:00,77.9,60.5,30.10,ESE,103,0.0,1.0,55,0.00,,CLR,0.00,VWS V14.01,2013-08-18 23:35:00,
2013-08-18 18:40:00,77.8,60.9,30.10,ESE,103,0.0,0.0,56,0.00,,CLR,0.00,VWS V14.01,2013-08-18 23:40:00,
2013-08-18 18:45:00,77.6,60.7,30.10,ESE,105,0.0,0.0,56,0.00,,CLR,0.00,VWS V14.01,2013-08-18 23:45:00,
2013-08-18 18:50:00,77.4,60.5,30.10,ESE,105,0.0,0.0,56,0.00,,CLR,0.00,VWS V14.01,2013-08-18 23:50:00,
2013-08-18 18:55:00,77.3,60.9,30.10,ESE,103,0.0,0.0,57,0.00,,CLR,0.00,VWS V14.01,2013-08-18 23:55:00,
2013-08-18 19:00:00,77.2,61.3,30.10,ESE,103,0.0,0.0,58,0.00,,CLR,0.00,VWS V14.01,2013-08-19 00:00:00,
2013-08-18 19:01:00,77.0,61.1,30.10,ESE,103,0.0,0.0,58,0.00,,CLR,0.00,VWS V14.01,2013-08-19 00:01:00,
2013-08-18 19:06:00,76.6,60.7,30.10,ESE,103,0.0,0.0,58,0.00,,CLR,0.00,VWS V14.01,2013-08-19 00:06:00,
2013-08-18 19:10:00,76.4,60.5,30.10,ESE,103,0.0,0.0,58,0.00,,CLR,0.00,VWS V14.01,2013-08-19 00:10:00,
2013-08-18 19:11:00,76.3,60.9,30.10,ESE,103,0.0,0.0,59,0.00,,CLR,0.00,VWS V14.01,2013-08-19 00:11:00,
2013-08-18 19:16:00,76.0,60.7,30.10,ESE,103,0.0,0.0,59,0.00,,CLR,0.00,VWS V14.01,2013-08-19 00:16:00,
2013-08-18 19:20:00,75.9,61.0,30.11,ESE,103,0.0,0.0,60,0.00,,CLR,0.00,VWS V14.01,2013-08-19 00:20:00,
2013-08-18 19:21:00,75.7,61.3,30.11,ESE,103,0.0,0.0,61,0.00,,CLR,0.00,VWS V14.01,2013-08-19 00:21:00,
2013-08-18 19:26:00,75.3,60.9,30.11,ESE,103,0.0,0.0,61,0.00,,CLR,0.00,VWS V14.01,2013-08-19 00:26:00,
2013-08-18 19:30:00,75.1,61.2,30.11,ESE,103,0.0,0.0,62,0.00,,CLR,0.00,VWS V14.01,2013-08-19 00:30:00,
2013-08-18 19:31:00,74.8,60.9,30.11,ESE,103,0.0,0.0,62,0.00,,CLR,0.00,VWS V14.01,2013-08-19 00:31:00,
2013-08-18 19:36:00,74.5,61.1,30.11,ESE,103,0.0,0.0,63,0.00,,CLR,0.00,VWS V14.01,2013-08-19 00:36:00,
2013-08-18 19:40:00,74.3,60.9,30.11,ESE,103,0.0,0.0,63,0.00,,CLR,0.00,VWS V14.01,2013-08-19 00:40:00,
2013-08-18 19:41:00,74.1,60.7,30.10,ESE,103,0.0,0.0,63,0.00,,CLR,0.00,VWS V14.01,2013-08-19 00:41:00,
2013-08-18 19:46:00,73.6,60.7,30.11,ESE,103,0.0,0.0,64,0.00,,CLR,0.00,VWS V14.01,2013-08-19 00:46:00,
2013-08-18 19:50:00,73.5,61.0,30.11,ESE,103,0.0,0.0,65,0.00,,CLR,0.00,VWS V14.01,2013-08-19 00:50:00,
2013-08-18 19:51:00,73.2,60.7,30.11,ESE,103,0.0,0.0,65,0.00,,CLR,0.00,VWS V14.01,2013-08-19 00:51:00,
2013-08-18 19:56:00,72.8,60.4,30.11,ESE,103,0.0,0.0,65,0.00,,CLR,0.00,VWS V14.01,2013-08-19 00:56:00,
2013-08-18 20:00:00,72.7,59.8,30.11,ESE,103,0.0,0.0,64,0.00,,CLR,0.00,VWS V14.01,2013-08-19 01:00:00,
2013-08-18 20:01:00,72.5,60.1,30.11,ESE,103,0.0,0.0,65,0.00,,CLR,0.00,VWS V14.01,2013-08-19 01:01:00,
2013-08-18 20:06:00,72.3,60.3,30.11,ESE,103,0.0,0.0,66,0.00,,CLR,0.00,VWS V14.01,2013-08-19 01:06:00,
2013-08-18 20:10:00,72.1,60.1,30.11,ESE,103,0.0,0.0,66,0.00,,CLR,0.00,VWS V14.01,2013-08-19 01:10:00,
2013-08-18 20:11:00,71.9,59.9,30.11,ESE,103,0.0,0.0,66,0.00,,CLR,0.00,VWS V14.01,2013-08-19 01:11:00,
2013-08-18 20:16:00,71.5,59.1,30.11,ESE,103,0.0,0.0,65,0.00,,CLR,0.00,VWS V14.01,2013-08-19 01:16:00,
2013-08-18 20:20:00,71.4,59.9,30.11,ESE,103,0.0,0.0,67,0.00,,CLR,0.00,VWS V14.01,2013-08-19 01:20:00,
2013-08-18 20:21:00,71.2,60.1,30.11,ESE,103,0.0,0.0,68,0.00,,CLR,0.00,VWS V14.01,2013-08-19 01:21:00,
2013-08-18 20:26:00,70.9,60.2,30.11,ESE,103,0.0,0.0,69,0.00,,CLR,0.00,VWS V14.01,2013-08-19 01:26:00,
2013-08-18 20:30:00,70.9,60.2,30.11,ESE,103,0.0,0.0,69,0.00,,CLR,0.00,VWS V14.01,2013-08-19 01:30:00,
2013-08-18 20:31:00,70.6,59.5,30.11,ESE,103,0.0,0.0,68,0.00,,CLR,0.00,VWS V14.01,2013-08-19 01:31:00,
2013-08-18 20:36:00,70.4,59.3,30.11,ESE,103,0.0,0.0,68,0.00,,CLR,0.00,VWS V14.01,2013-08-19 01:36:00,
2013-08-18 20:40:00,70.4,59.8,30.11,ESE,103,0.0,0.0,69,0.00,,CLR,0.00,VWS V14.01,2013-08-19 01:40:00,
2013-08-18 20:41:00,70.3,59.7,30.11,ESE,103,0.0,0.0,69,0.00,,CLR,0.00,VWS V14.01,2013-08-19 01:41:00,
2013-08-18 20:46:00,70.2,59.6,30.11,ESE,103,0.0,0.0,69,0.00,,CLR,0.00,VWS V14.01,2013-08-19 01:46:00,
2013-08-18 20:50:00,70.2,59.6,30.11,ESE,103,0.0,0.0,69,0.00,,CLR,0.00,VWS V14.01,2013-08-19 01:50:00,
2013-08-18 20:51:00,70.1,59.5,30.11,ESE,103,0.0,0.0,69,0.00,,CLR,0.00,VWS V14.01,2013-08-19 01:51:00,
2013-08-18 20:56:00,69.9,59.7,30.11,ESE,103,0.0,0.0,70,0.00,,CLR,0.00,VWS V14.01,2013-08-19 01:56:00,
2013-08-18 21:00:00,69.9,59.7,30.11,ESE,103,0.0,0.0,70,0.00,,CLR,0.00,VWS V14.01,2013-08-19 02:00:00,
2013-08-18 21:01:00,69.9,59.7,30.11,ESE,103,0.0,0.0,70,0.00,,CLR,0.00,VWS V14.01,2013-08-19 02:01:00,
2013-08-18 21:06:00,69.9,59.7,30.12,ESE,103,0.0,0.0,70,0.00,,CLR,0.00,VWS V14.01,2013-08-19 02:06:00,
2013-08-18 21:10:00,69.9,59.7,30.12,ESE,103,0.0,0.0,70,0.00,,CLR,0.00,VWS V14.01,2013-08-19 02:10:00,
2013-08-18 21:11:00,69.8,59.6,30.12,ESE,103,0.0,0.0,70,0.00,,CLR,0.00,VWS V14.01,2013-08-19 02:11:00,
2013-08-18 21:16:00,69.7,59.5,30.12,ESE,103,0.0,0.0,70,0.00,,CLR,0.00,VWS V14.01,2013-08-19 02:16:00,
2013-08-18 21:20:00,69.7,59.5,30.12,ESE,103,0.0,0.0,70,0.00,,CLR,0.00,VWS V14.01,2013-08-19 02:20:00,
2013-08-18 21:21:00,69.7,59.5,30.12,ESE,103,0.0,0.0,70,0.00,,CLR,0.00,VWS V14.01,2013-08-19 02:21:00,
2013-08-18 21:26:00,69.5,59.3,30.12,ESE,103,0.0,0.0,70,0.00,,CLR,0.00,VWS V14.01,2013-08-19 02:26:00,
2013-08-18 21:30:00,69.4,59.2,30.12,ESE,103,0.0,0.0,70,0.00,,CLR,0.00,VWS V14.01,2013-08-19 02:30:00,
2013-08-18 21:31:00,69.4,59.2,30.13,ESE,103,0.0,0.0,70,0.00,,CLR,0.00,VWS V14.01,2013-08-19 02:31:00,
2013-08-18 21:37:00,69.4,58.8,30.13,ESE,103,0.0,0.0,69,0.00,,CLR,0.00,VWS V14.01,2013-08-19 02:37:00,
2013-08-18 21:40:00,69.4,58.8,30.12,ESE,103,0.0,0.0,69,0.00,,CLR,0.00,VWS V14.01,2013-08-19 02:40:00,
2013-08-18 21:42:00,69.6,59.0,30.12,East,92,0.0,1.0,69,0.00,,CLR,0.00,VWS V14.01,2013-08-19 02:42:00,
2013-08-18 21:47:00,69.7,59.5,30.12,East,96,0.0,1.0,70,0.00,,CLR,0.00,VWS V14.01,2013-08-19 02:47:00,
2013-08-18 21:50:00,69.7,59.1,30.12,East,96,0.0,1.0,69,0.00,,CLR,0.00,VWS V14.01,2013-08-19 02:50:00,
2013-08-18 21:52:00,69.6,59.4,30.12,East,96,0.0,0.0,70,0.00,,CLR,0.00,VWS V14.01,2013-08-19 02:52:00,
2013-08-18 21:57:00,69.2,59.8,30.12,ESE,107,0.0,0.0,72,0.00,,CLR,0.00,VWS V14.01,2013-08-19 02:57:00,
2013-08-18 22:00:00,69.1,59.7,30.12,ESE,107,0.0,0.0,72,0.00,,CLR,0.00,VWS V14.01,2013-08-19 03:00:00,
2013-08-18 22:02:00,68.8,59.4,30.13,ESE,107,0.0,0.0,72,0.00,,CLR,0.00,VWS V14.01,2013-08-19 03:02:00,
2013-08-18 22:07:00,68.6,59.6,30.12,ESE,107,0.0,0.0,73,0.00,,CLR,0.00,VWS V14.01,2013-08-19 03:07:00,
2013-08-18 22:10:00,68.5,59.9,30.12,ESE,108,0.0,0.0,74,0.00,,CLR,0.00,VWS V14.01,2013-08-19 03:10:00,
2013-08-18 22:12:00,68.1,60.3,30.12,ESE,108,0.0,0.0,76,0.00,,CLR,0.00,VWS V14.01,2013-08-19 03:12:00,
2013-08-18 22:17:00,67.7,59.9,30.12,ESE,108,0.0,0.0,76,0.00,,CLR,0.00,VWS V14.01,2013-08-19 03:17:00,
2013-08-18 22:20:00,67.6,59.4,30.12,ESE,107,0.0,0.0,75,0.00,,CLR,0.00,VWS V14.01,2013-08-19 03:20:00,
2013-08-18 22:22:00,67.5,59.3,30.13,ESE,107,0.0,0.0,75,0.00,,CLR,0.00,VWS V14.01,2013-08-19 03:22:00,
2013-08-18 22:27:00,67.5,58.9,30.13,ESE,108,0.0,0.0,74,0.00,,CLR,0.00,VWS V14.01,2013-08-19 03:27:00,
2013-08-18 22:30:00,67.5,58.9,30.13,ESE,108,0.0,0.0,74,0.00,,CLR,0.00,VWS V14.01,2013-08-19 03:30:00,
2013-08-18 22:32:00,67.5,58.9,30.12,ESE,107,0.0,0.0,74,0.00,,CLR,0.00,VWS V14.01,2013-08-19 03:32:00,
2013-08-18 22:37:00,67.4,58.8,30.13,ESE,107,0.0,0.0,74,0.00,,CLR,0.00,VWS V14.01,2013-08-19 03:37:00,
2013-08-18 22:40:00,67.4,58.8,30.13,ESE,108,0.0,0.0,74,0.00,,CLR,0.00,VWS V14.01,2013-08-19 03:40:00,
2013-08-18 22:42:00,67.3,59.5,30.12,ESE,107,0.0,0.0,76,0.00,,CLR,0.00,VWS V14.01,2013-08-19 03:42:00,
2013-08-18 22:47:00,67.1,58.9,30.12,ESE,107,0.0,0.0,75,0.00,,CLR,0.00,VWS V14.01,2013-08-19 03:47:00,
2013-08-18 22:50:00,67.1,58.9,30.12,ESE,108,0.0,0.0,75,0.00,,CLR,0.00,VWS V14.01,2013-08-19 03:50:00,
2013-08-18 22:52:00,67.0,59.2,30.12,ESE,107,0.0,0.0,76,0.00,,CLR,0.00,VWS V14.01,2013-08-19 03:52:00,
2013-08-18 22:57:00,67.0,59.2,30.12,ESE,108,0.0,0.0,76,0.00,,CLR,0.00,VWS V14.01,2013-08-19 03:57:00,
2013-08-18 23:00:00,67.0,59.2,30.12,ESE,107,0.0,0.0,76,0.00,,CLR,0.00,VWS V14.01,2013-08-19 04:00:00,
2013-08-18 23:01:00,66.9,59.1,30.12,ESE,107,0.0,0.0,76,0.00,,CLR,0.00,VWS V14.01,2013-08-19 04:01:00,
2013-08-18 23:03:00,66.9,59.1,30.12,ESE,107,0.0,0.0,76,0.00,,CLR,0.00,VWS V14.01,2013-08-19 04:03:00,
2013-08-18 23:04:00,66.9,58.7,30.12,East,101,0.0,0.0,75,0.00,,CLR,0.00,VWS V14.01,2013-08-19 04:04:00,
2013-08-18 23:09:00,67.2,59.4,30.12,East,100,0.0,0.0,76,0.00,,CLR,0.00,VWS V14.01,2013-08-19 04:09:00,
2013-08-18 23:10:00,67.2,59.4,30.12,ESE,102,0.0,0.0,76,0.00,,CLR,0.00,VWS V14.01,2013-08-19 04:10:00,
2013-08-18 23:14:00,67.2,59.0,30.12,East,101,0.0,0.0,75,0.00,,CLR,0.00,VWS V14.01,2013-08-19 04:14:00,
2013-08-18 23:19:00,67.1,59.3,30.12,East,100,0.0,0.0,76,0.00,,CLR,0.00,VWS V14.01,2013-08-19 04:19:00,
2013-08-18 23:20:00,67.1,59.3,30.12,East,101,0.0,0.0,76,0.00,,CLR,0.00,VWS V14.01,2013-08-19 04:20:00,
2013-08-18 23:24:00,67.0,59.2,30.12,East,100,0.0,0.0,76,0.00,,CLR,0.00,VWS V14.01,2013-08-19 04:24:00,
2013-08-18 23:29:00,66.9,59.1,30.12,East,100,0.0,0.0,76,0.00,,CLR,0.00,VWS V14.01,2013-08-19 04:29:00,
2013-08-18 23:30:00,66.9,59.1,30.12,East,101,0.0,0.0,76,0.00,,CLR,0.00,VWS V14.01,2013-08-19 04:30:00,
2013-08-18 23:34:00,66.9,58.7,30.12,East,100,0.0,0.0,75,0.00,,CLR,0.00,VWS V14.01,2013-08-19 04:34:00,
2013-08-18 23:39:00,67.1,59.3,30.12,East,100,0.0,0.0,76,0.00,,CLR,0.00,VWS V14.01,2013-08-19 04:39:00,
2013-08-18 23:40:00,67.0,58.8,30.12,East,100,0.0,0.0,75,0.00,,CLR,0.00,VWS V14.01,2013-08-19 04:40:00,
2013-08-18 23:44:00,66.8,59.4,30.12,East,100,0.0,0.0,77,0.00,,CLR,0.00,VWS V14.01,2013-08-19 04:44:00,
2013-08-18 23:49:00,66.6,58.8,30.12,East,101,0.0,0.0,76,0.00,,CLR,0.00,VWS V14.01,2013-08-19 04:49:00,
2013-08-18 23:50:00,66.6,58.8,30.12,East,100,0.0,0.0,76,0.00,,CLR,0.00,VWS V14.01,2013-08-19 04:50:00,
2013-08-18 23:54:00,66.5,58.7,30.12,East,100,0.0,0.0,76,0.00,,CLR,0.00,VWS V14.01,2013-08-19 04:54:00,
2013-08-18 23:59:00,66.5,58.3,30.12,East,100,0.0,0.0,75,0.00,,CLR,0.00,VWS V14.01,2013-08-19 04:59:00,